Location: Newark
(58.9986°N, 38.5006°E)
Time: 17:01:21
(UTC+00:00)

N. Korean satellite - Visible Passes

Search period start: 25 February 2021 00:00
Search period end: 07 March 2021 00:00
Orbit: 451 x 503 km, 97.2° (Epoch: 25 February)

Date Brightness Start Highest point End Pass type
(mag) Time Alt. Az. Time Alt. Az. Time Alt. Az.
25 Feb 9.8 01:49:17 10° NE 01:51:10 14° E 01:53:02 10° ESE visible
25 Feb 6.4 03:21:30 10° NNE 03:24:58 83° WNW 03:28:28 10° SSW visible
26 Feb 7.3 02:54:47 10° NNE 02:58:12 54° E 03:01:39 10° S visible
27 Feb 8.6 02:28:14 10° NNE 02:31:21 30° E 02:34:30 10° SSE visible
28 Feb 9.5 02:01:56 10° NE 02:04:25 18° E 02:06:54 10° SE visible
28 Feb 6.5 03:34:37 10° N 03:38:05 61° WNW 03:41:34 10° SSW visible
01 Mar 10.1 01:36:32 10° ENE 01:37:22 11° E 01:38:12 10° E visible
01 Mar 6.8 03:07:50 10° NNE 03:11:20 73° ESE 03:14:52 10° S visible
02 Mar 8.0 02:41:11 10° NNE 02:44:31 40° E 02:47:52 10° S visible
03 Mar 9.1 02:14:42 10° NE 02:17:35 23° E 02:20:30 10° SSE visible
04 Mar 9.8 01:48:37 10° NE 01:50:34 14° E 01:52:32 10° ESE visible
04 Mar 6.5 03:20:51 10° NNE 03:24:23 83° WNW 03:27:57 10° SSW visible
05 Mar 7.4 02:54:06 10° NNE 02:57:35 54° ESE 03:01:05 10° S visible
06 Mar 8.6 02:27:30 10° NNE 02:30:41 30° E 02:33:53 10° SSE visible
